MFX151 UZTT-EDDF

Flight info

Callsign MFX151
Flight time N/A
Altitude 38000
Route MIKNO L163 SIVKO M166 ARISA L736 ASKIL L735 BADUS/N0441F380 DCT VABER L735 GOVEN DCT TADUV T178 LASTO/N0380F300 T178 ROBEL/N0344F240 T178 KERAX
Aircraft A20N/M-SDE2E3FGHIRWXY/LB1

Departure

Time 2026-04-15 11:55
Airport Tashkent International Airport (UZTT)

Arrival

Time N/A
Airport Frankfurt Main Airport (EDDF)
Time Latitude Longitude Altitude Speed Heading
2026-04-15 11:41 41.26039 69.27003 1407 ft 0 kts 336°
2026-04-15 11:47 41.26039 69.27002 1407 ft 0 kts 336°
2026-04-15 11:47 41.26047 69.26998 1412 ft 2 kts 336°
2026-04-15 11:48 41.26068 69.26995 1410 ft 4 kts 11°
2026-04-15 11:48 41.26091 69.27024 1407 ft 6 kts 57°
2026-04-15 11:48 41.26112 69.27080 1409 ft 8 kts 64°
2026-04-15 11:48 41.26123 69.27156 1414 ft 8 kts 115°
2026-04-15 11:49 41.26081 69.27225 1410 ft 11 kts 122°
2026-04-15 11:49 41.26075 69.27325 1409 ft 12 kts 83°
2026-04-15 11:49 41.26087 69.27445 1408 ft 14 kts 81°
2026-04-15 11:49 41.26102 69.27578 1407 ft 15 kts 82°
2026-04-15 11:50 41.26118 69.27726 1407 ft 17 kts 81°
2026-04-15 11:50 41.26136 69.27888 1410 ft 19 kts 81°
2026-04-15 11:50 41.26156 69.28055 1409 ft 19 kts 81°
2026-04-15 11:50 41.26176 69.28238 1407 ft 20 kts 82°
2026-04-15 11:51 41.26190 69.28431 1412 ft 22 kts 96°
2026-04-15 11:51 41.26191 69.28636 1407 ft 23 kts 89°
2026-04-15 11:51 41.26193 69.28855 1409 ft 25 kts 89°
2026-04-15 11:51 41.26198 69.29086 1410 ft 26 kts 87°
2026-04-15 11:52 41.26209 69.29329 1411 ft 26 kts 86°
2026-04-15 11:52 41.26213 69.29547 1408 ft 20 kts 90°
2026-04-15 11:52 41.26218 69.29704 1411 ft 13 kts 87°
2026-04-15 11:52 41.26222 69.29819 1411 ft 14 kts 88°
2026-04-15 11:53 41.26224 69.29920 1412 ft 0 kts 88°
2026-04-15 11:53 41.26225 69.29940 1411 ft 4 kts 88°
2026-04-15 11:53 41.26223 69.29989 1414 ft 5 kts 109°
2026-04-15 11:53 41.26188 69.30026 1414 ft 8 kts 142°
2026-04-15 11:54 41.26141 69.30073 1412 ft 9 kts 142°
2026-04-15 11:54 41.26086 69.30083 1412 ft 9 kts 205°
2026-04-15 11:54 41.26060 69.30005 1413 ft 10 kts 258°
2026-04-15 11:54 41.26043 69.29878 1413 ft 23 kts 261°
2026-04-15 11:55 41.26014 69.29597 1414 ft 70 kts 265°
2026-04-15 11:55 41.25860 69.28241 1414 ft 148 kts 261°
2026-04-15 11:55 41.25695 69.26771 1817 ft 160 kts 264°
2026-04-15 11:55 41.25565 69.25792 2296 ft 163 kts 263°
2026-04-15 11:56 41.25256 69.23812 3195 ft 166 kts 260°
2026-04-15 11:56 41.25085 69.22783 3607 ft 171 kts 259°
2026-04-15 11:56 41.24824 69.21237 4273 ft 176 kts 258°
2026-04-15 11:56 41.24625 69.19586 4764 ft 191 kts 265°
2026-04-15 11:57 41.24524 69.17708 5088 ft 216 kts 265°
2026-04-15 11:57 41.24221 69.13556 6585 ft 227 kts 262°
2026-04-15 11:57 41.24306 69.10767 7601 ft 237 kts 289°
2026-04-15 11:58 41.24870 69.09467 8092 ft 245 kts 308°
2026-04-15 11:58 41.26270 69.08152 8791 ft 259 kts 338°
2026-04-15 11:58 41.28080 69.07654 9436 ft 274 kts 350°
2026-04-15 11:58 41.30074 69.07329 9773 ft 298 kts 352°
2026-04-15 11:59 41.32168 69.06958 10273 ft 312 kts 345°
2026-04-15 11:59 41.34262 69.05893 10573 ft 331 kts 326°
2026-04-15 11:59 41.36154 69.04057 10937 ft 346 kts 318°
2026-04-15 11:59 41.38059 69.02074 11662 ft 351 kts 317°
2026-04-15 12:00 41.39989 69.00071 12464 ft 353 kts 316°
2026-04-15 12:00 41.41954 68.98035 13216 ft 357 kts 316°
2026-04-15 12:00 41.43907 68.96012 13953 ft 361 kts 315°
2026-04-15 12:00 41.45910 68.93937 14648 ft 364 kts 315°
2026-04-15 12:01 41.47920 68.91853 15331 ft 367 kts 315°
2026-04-15 12:01 41.49936 68.89763 15996 ft 370 kts 315°
2026-04-15 12:01 41.51973 68.87648 16640 ft 373 kts 315°
2026-04-15 12:01 41.54021 68.85520 17300 ft 376 kts 315°
2026-04-15 12:02 41.56122 68.83335 17955 ft 380 kts 315°
2026-04-15 12:02 41.58209 68.81162 18574 ft 382 kts 315°
2026-04-15 12:02 41.60298 68.78985 19103 ft 386 kts 315°
2026-04-15 12:02 41.62438 68.76753 19635 ft 390 kts 315°
2026-04-15 12:03 41.64584 68.74512 20139 ft 394 kts 315°
2026-04-15 12:03 41.66753 68.72246 20674 ft 398 kts 315°
2026-04-15 12:03 41.68942 68.69957 21192 ft 402 kts 315°
2026-04-15 12:03 41.71149 68.67647 21695 ft 405 kts 315°
2026-04-15 12:04 41.73383 68.65309 22218 ft 409 kts 316°
2026-04-15 12:04 41.75635 68.62948 22729 ft 412 kts 316°
2026-04-15 12:04 41.77898 68.60574 23229 ft 416 kts 316°
2026-04-15 12:04 41.80185 68.58173 23694 ft 420 kts 316°
2026-04-15 12:05 41.82504 68.55736 23980 ft 423 kts 316°
2026-04-15 12:05 41.84801 68.53315 24060 ft 422 kts 314°
2026-04-15 12:05 41.86934 68.50660 24072 ft 416 kts 307°
2026-04-15 12:05 41.88777 68.47691 24068 ft 410 kts 299°
2026-04-15 12:06 41.90422 68.44547 24070 ft 409 kts 298°
2026-04-15 12:06 41.92062 68.41433 24067 ft 409 kts 299°
2026-04-15 12:06 41.93708 68.38321 24063 ft 409 kts 299°
2026-04-15 12:06 41.95356 68.35201 24063 ft 409 kts 298°
2026-04-15 12:07 41.97003 68.32077 24058 ft 409 kts 298°
2026-04-15 12:07 41.98627 68.28990 24059 ft 409 kts 298°
2026-04-15 12:07 42.00276 68.25852 24055 ft 409 kts 298°
2026-04-15 12:07 42.01921 68.22717 24059 ft 409 kts 298°
2026-04-15 12:08 42.03632 68.19628 24075 ft 415 kts 303°
2026-04-15 12:08 42.05602 68.16755 24473 ft 419 kts 307°
2026-04-15 12:08 42.07599 68.13886 24971 ft 420 kts 306°
2026-04-15 12:08 42.09593 68.10998 25382 ft 422 kts 306°
2026-04-15 12:09 42.11598 68.08088 25788 ft 425 kts 306°
2026-04-15 12:09 42.13605 68.05176 26191 ft 427 kts 306°
2026-04-15 12:09 42.15636 68.02227 26588 ft 430 kts 306°
2026-04-15 12:09 42.17672 67.99273 26982 ft 432 kts 306°
2026-04-15 12:10 42.19723 67.96293 27363 ft 435 kts 306°
2026-04-15 12:10 42.21795 67.93281 27729 ft 437 kts 306°
2026-04-15 12:10 42.23843 67.90300 28092 ft 439 kts 306°
2026-04-15 12:10 42.25925 67.87267 28416 ft 442 kts 306°
2026-04-15 12:11 42.28020 67.84211 28749 ft 444 kts 306°
2026-04-15 12:11 42.30132 67.81128 29075 ft 446 kts 306°
2026-04-15 12:11 42.32240 67.78048 29387 ft 448 kts 306°
2026-04-15 12:11 42.34376 67.74921 29691 ft 451 kts 306°
2026-04-15 12:12 42.36491 67.71824 29997 ft 453 kts 306°
2026-04-15 12:12 42.38648 67.68661 30278 ft 455 kts 306°
2026-04-15 12:12 42.40783 67.65528 30563 ft 456 kts 306°
2026-04-15 12:12 42.42950 67.62344 30849 ft 458 kts 306°
2026-04-15 12:13 42.45103 67.59178 31126 ft 460 kts 305°
2026-04-15 12:13 42.47260 67.56002 31474 ft 459 kts 305°
2026-04-15 12:13 42.49423 67.52815 31853 ft 458 kts 305°
2026-04-15 12:13 42.51581 67.49634 32214 ft 457 kts 305°
2026-04-15 12:14 42.53728 67.46463 32570 ft 456 kts 305°
2026-04-15 12:14 42.55884 67.43274 32927 ft 455 kts 305°
2026-04-15 12:14 42.58012 67.40124 33254 ft 454 kts 305°
2026-04-15 12:14 42.60151 67.36956 33583 ft 453 kts 305°
2026-04-15 12:15 42.62279 67.33803 33907 ft 453 kts 305°
2026-04-15 12:15 42.64398 67.30659 34193 ft 452 kts 305°
2026-04-15 12:15 42.66517 67.27511 34449 ft 451 kts 305°
2026-04-15 12:15 42.68638 67.24356 34690 ft 450 kts 305°
2026-04-15 12:16 42.70758 67.21199 34929 ft 450 kts 305°
2026-04-15 12:16 42.72842 67.18092 35149 ft 450 kts 305°
2026-04-15 12:16 42.74959 67.14933 35372 ft 449 kts 305°
2026-04-15 12:16 42.77073 67.11774 35584 ft 449 kts 305°
2026-04-15 12:17 42.79170 67.08637 35797 ft 448 kts 305°
2026-04-15 12:17 42.81253 67.05518 36001 ft 448 kts 305°
2026-04-15 12:17 42.83366 67.02351 36200 ft 448 kts 305°
2026-04-15 12:17 42.85431 66.99253 36386 ft 447 kts 305°
2026-04-15 12:18 42.87538 66.96088 36571 ft 447 kts 305°
2026-04-15 12:18 42.89638 66.92929 36745 ft 447 kts 306°
2026-04-15 12:18 42.91716 66.89801 36920 ft 447 kts 306°
2026-04-15 12:18 42.93793 66.86672 37077 ft 446 kts 306°
2026-04-15 12:19 42.95888 66.83512 37242 ft 446 kts 306°
2026-04-15 12:19 42.97968 66.80370 37398 ft 446 kts 306°
2026-04-15 12:19 43.00034 66.77247 37540 ft 446 kts 306°
2026-04-15 12:19 43.02102 66.74114 37687 ft 446 kts 306°
2026-04-15 12:20 43.04175 66.70967 37824 ft 445 kts 306°
2026-04-15 12:20 43.06253 66.67809 37957 ft 445 kts 306°
2026-04-15 12:20 43.08327 66.64653 38038 ft 446 kts 306°
2026-04-15 12:21 43.12454 66.58366 38037 ft 445 kts 306°
2026-04-15 12:21 43.16597 66.52040 38035 ft 445 kts 306°
2026-04-15 12:22 43.20727 66.45721 38038 ft 445 kts 306°
2026-04-15 12:22 43.24854 66.39393 38033 ft 446 kts 306°
2026-04-15 12:23 43.28994 66.33039 38037 ft 446 kts 306°
2026-04-15 12:23 43.33138 66.26664 38038 ft 447 kts 306°
2026-04-15 12:24 43.37273 66.20288 38034 ft 447 kts 306°
2026-04-15 12:24 43.41407 66.13898 38036 ft 447 kts 306°
2026-04-15 12:25 43.45520 66.07527 38039 ft 447 kts 306°
2026-04-15 12:25 43.49665 66.01091 38034 ft 447 kts 306°
2026-04-15 12:26 43.53777 65.94692 38027 ft 447 kts 306°
2026-04-15 12:26 43.57907 65.88253 38027 ft 447 kts 306°
2026-04-15 12:27 43.62023 65.81819 38022 ft 446 kts 306°
2026-04-15 12:27 43.66124 65.75394 38015 ft 446 kts 306°
2026-04-15 12:28 43.70226 65.68954 38006 ft 445 kts 306°
2026-04-15 12:28 43.74317 65.62517 38006 ft 445 kts 306°
2026-04-15 12:29 43.78381 65.56107 38000 ft 445 kts 306°
2026-04-15 12:29 43.82477 65.49631 37997 ft 444 kts 306°
2026-04-15 12:30 43.86527 65.43214 37990 ft 444 kts 306°
2026-04-15 12:30 43.90610 65.36732 37989 ft 444 kts 306°
2026-04-15 12:31 43.94667 65.30275 37986 ft 444 kts 306°
2026-04-15 12:31 43.98707 65.23830 37988 ft 444 kts 306°
2026-04-15 12:32 44.02766 65.17342 37984 ft 444 kts 306°
2026-04-15 12:32 44.06813 65.10857 37978 ft 444 kts 306°
2026-04-15 12:33 44.10867 65.04346 37983 ft 445 kts 306°
2026-04-15 12:33 44.14915 64.97830 37984 ft 445 kts 306°
2026-04-15 12:34 44.18938 64.91340 37981 ft 445 kts 306°
2026-04-15 12:34 44.22985 64.84798 37983 ft 445 kts 306°
2026-04-15 12:35 44.27034 64.78235 37983 ft 445 kts 305°
2026-04-15 12:35 44.30380 64.72784 37974 ft 446 kts 305°
2026-04-15 12:36 44.34426 64.66181 37979 ft 446 kts 305°
2026-04-15 12:36 44.38448 64.59607 37978 ft 446 kts 305°
2026-04-15 12:37 44.42489 64.53008 37979 ft 446 kts 306°
2026-04-15 12:37 44.46536 64.46379 37973 ft 447 kts 305°
2026-04-15 12:38 44.50551 64.39780 37971 ft 447 kts 305°
2026-04-15 12:38 44.54596 64.33118 37964 ft 447 kts 305°
2026-04-15 12:39 44.58614 64.26484 37963 ft 447 kts 305°
2026-04-15 12:39 44.62656 64.19796 37955 ft 447 kts 305°
2026-04-15 12:40 44.66677 64.13125 37957 ft 448 kts 305°
2026-04-15 12:40 44.70700 64.06436 37937 ft 448 kts 305°
2026-04-15 12:41 44.74705 63.99760 37938 ft 448 kts 305°
2026-04-15 12:41 44.78728 63.93038 37938 ft 449 kts 305°
2026-04-15 12:42 44.82758 63.86288 37930 ft 449 kts 305°
2026-04-15 12:42 44.86764 63.79562 37931 ft 450 kts 305°
2026-04-15 12:43 44.90792 63.72783 37925 ft 451 kts 305°
2026-04-15 12:43 44.94820 63.65989 37923 ft 452 kts 305°
2026-04-15 12:44 44.98878 63.59127 37920 ft 453 kts 305°
2026-04-15 12:44 45.02901 63.52310 37918 ft 454 kts 305°
2026-04-15 12:45 45.06927 63.45469 37915 ft 455 kts 305°
2026-04-15 12:45 45.11001 63.38526 37919 ft 456 kts 305°
2026-04-15 12:46 45.15050 63.31614 37914 ft 457 kts 305°
2026-04-15 12:46 45.19094 63.24691 37917 ft 458 kts 305°
2026-04-15 12:47 45.23159 63.17715 37905 ft 459 kts 305°
2026-04-15 12:47 45.27233 63.10706 37903 ft 460 kts 305°
2026-04-15 12:48 45.31306 63.03681 37895 ft 461 kts 305°
2026-04-15 12:48 45.35375 62.96647 37892 ft 461 kts 305°
2026-04-15 12:49 45.39441 62.89600 37887 ft 462 kts 305°
2026-04-15 12:49 45.43537 62.82483 37883 ft 463 kts 305°
2026-04-15 12:50 45.47608 62.75391 37880 ft 464 kts 305°
2026-04-15 12:50 45.51685 62.68271 37870 ft 465 kts 305°
2026-04-15 12:51 45.55788 62.61089 37871 ft 465 kts 305°
2026-04-15 12:51 45.59868 62.53928 37865 ft 466 kts 305°
2026-04-15 12:52 45.63965 62.46718 37863 ft 466 kts 305°
2026-04-15 12:52 45.68039 62.39526 37855 ft 466 kts 305°
2026-04-15 12:53 45.72100 62.32343 37843 ft 464 kts 305°
2026-04-15 12:53 45.76155 62.25151 37842 ft 464 kts 305°
2026-04-15 12:54 45.80213 62.17936 37838 ft 463 kts 305°
2026-04-15 12:54 45.84391 62.10854 37835 ft 466 kts 311°
2026-04-15 12:55 45.88928 62.04217 37828 ft 466 kts 310°
2026-04-15 12:55 45.93441 61.97569 37823 ft 466 kts 310°
2026-04-15 12:56 45.97962 61.90885 37824 ft 466 kts 311°
2026-04-15 12:56 46.02476 61.84198 37815 ft 466 kts 311°
2026-04-15 12:57 46.07004 61.77473 37806 ft 467 kts 311°
2026-04-15 12:57 46.11527 61.70739 37797 ft 467 kts 311°
2026-04-15 12:58 46.16040 61.64001 37798 ft 467 kts 311°
2026-04-15 12:58 46.20550 61.57228 37788 ft 467 kts 311°
2026-04-15 12:59 46.27296 61.47079 37774 ft 467 kts 311°
2026-04-15 12:59 46.31774 61.40323 37778 ft 468 kts 311°
2026-04-15 13:00 46.36268 61.33524 37763 ft 468 kts 311°
2026-04-15 13:00 46.40785 61.26672 37765 ft 469 kts 311°
2026-04-15 13:01 46.45275 61.19841 37763 ft 470 kts 311°
2026-04-15 13:01 46.49779 61.12972 37766 ft 469 kts 311°
2026-04-15 13:02 46.54265 61.06113 37756 ft 469 kts 312°
2026-04-15 13:02 46.58769 60.99209 37750 ft 470 kts 312°
2026-04-15 13:03 46.63263 60.92303 37750 ft 470 kts 312°
2026-04-15 13:03 46.67770 60.85361 37750 ft 471 kts 312°
2026-04-15 13:04 46.72261 60.78424 37739 ft 471 kts 312°
2026-04-15 13:04 46.76732 60.71500 37745 ft 470 kts 312°
2026-04-15 13:05 46.81224 60.64526 37732 ft 470 kts 313°
2026-04-15 13:05 46.85687 60.57579 37736 ft 470 kts 313°
2026-04-15 13:06 46.90141 60.50626 37730 ft 470 kts 313°
2026-04-15 13:06 46.94610 60.43634 37729 ft 470 kts 313°
2026-04-15 13:07 46.99071 60.36634 37731 ft 469 kts 313°
2026-04-15 13:07 47.03527 60.29624 37724 ft 470 kts 313°
2026-04-15 13:08 47.07967 60.22621 37729 ft 470 kts 313°
2026-04-15 13:08 47.12426 60.15571 37730 ft 470 kts 313°
2026-04-15 13:09 47.16881 60.08508 37730 ft 469 kts 313°
2026-04-15 13:09 47.21310 60.01467 37732 ft 470 kts 313°
2026-04-15 13:10 47.25733 59.94416 37726 ft 470 kts 313°
2026-04-15 13:10 47.29427 59.88514 37735 ft 469 kts 313°
2026-04-15 13:11 47.34578 59.80260 37735 ft 469 kts 313°
2026-04-15 13:11 47.38262 59.74344 37736 ft 469 kts 313°
2026-04-15 13:12 47.42684 59.67224 37740 ft 469 kts 313°
2026-04-15 13:12 47.47091 59.60108 37737 ft 469 kts 313°
2026-04-15 13:13 47.51476 59.53011 37739 ft 468 kts 313°
2026-04-15 13:13 47.55865 59.45886 37749 ft 467 kts 313°
2026-04-15 13:14 47.60263 59.38731 37741 ft 467 kts 313°
2026-04-15 13:14 47.64603 59.31648 37746 ft 467 kts 313°
2026-04-15 13:15 47.68983 59.24486 37746 ft 466 kts 313°
2026-04-15 13:15 47.73324 59.17369 37743 ft 466 kts 313°
2026-04-15 13:16 47.77677 59.10190 37754 ft 466 kts 313°
2026-04-15 13:16 47.82002 59.03049 37742 ft 466 kts 313°
2026-04-15 13:17 47.86328 58.95890 37751 ft 466 kts 313°
2026-04-15 13:17 47.90681 58.88664 37750 ft 466 kts 313°
2026-04-15 13:18 47.94988 58.81496 37755 ft 465 kts 313°
2026-04-15 13:18 47.99313 58.74276 37765 ft 465 kts 313°
2026-04-15 13:19 48.03610 58.67087 37766 ft 464 kts 313°
2026-04-15 13:19 48.07872 58.59935 37761 ft 463 kts 313°
2026-04-15 13:20 48.12175 58.52695 37760 ft 463 kts 313°
2026-04-15 13:20 48.16448 58.45486 37765 ft 462 kts 313°
2026-04-15 13:21 48.20699 58.38296 37774 ft 462 kts 313°
2026-04-15 13:21 48.24935 58.31109 37776 ft 461 kts 313°
2026-04-15 13:22 48.29200 58.23856 37774 ft 460 kts 312°
2026-04-15 13:22 48.33411 58.16673 37779 ft 460 kts 312°
2026-04-15 13:23 48.37631 58.09456 37781 ft 459 kts 312°
2026-04-15 13:23 48.41848 58.02224 37782 ft 459 kts 312°
2026-04-15 13:24 48.46060 57.94981 37787 ft 458 kts 312°
2026-04-15 13:24 48.50254 57.87747 37788 ft 458 kts 313°
2026-04-15 13:25 48.54425 57.80536 37791 ft 457 kts 313°
2026-04-15 13:25 48.58592 57.73310 37797 ft 457 kts 313°
2026-04-15 13:26 48.62767 57.66052 37795 ft 454 kts 313°
2026-04-15 13:26 48.66891 57.58863 37798 ft 454 kts 313°
2026-04-15 13:27 48.71030 57.51627 37803 ft 452 kts 313°
2026-04-15 13:27 48.75140 57.44427 37805 ft 453 kts 313°
2026-04-15 13:28 48.79245 57.37205 37799 ft 451 kts 313°
2026-04-15 13:28 48.83354 57.29971 37788 ft 450 kts 313°
2026-04-15 13:29 48.87441 57.22768 37811 ft 452 kts 313°
2026-04-15 13:29 48.91546 57.15502 37810 ft 453 kts 313°
2026-04-15 13:30 48.95636 57.08238 37814 ft 451 kts 313°
2026-04-15 13:30 48.99701 57.01001 37820 ft 450 kts 313°
2026-04-15 13:31 49.03774 56.93732 37819 ft 449 kts 313°
2026-04-15 13:31 49.07826 56.86478 37821 ft 448 kts 313°
2026-04-15 13:32 49.11846 56.79262 37826 ft 448 kts 313°
2026-04-15 13:32 49.15878 56.72007 37822 ft 447 kts 313°
2026-04-15 13:33 49.19902 56.64745 37820 ft 447 kts 313°
2026-04-15 13:33 49.23934 56.57446 37824 ft 447 kts 313°
2026-04-15 13:34 49.27941 56.50176 37818 ft 446 kts 313°
2026-04-15 13:34 49.31935 56.42911 37820 ft 446 kts 313°
2026-04-15 13:35 49.35927 56.35625 37827 ft 447 kts 313°
2026-04-15 13:35 49.39919 56.28322 37831 ft 447 kts 313°
2026-04-15 13:36 49.43909 56.21007 37831 ft 447 kts 313°
2026-04-15 13:36 49.47900 56.13661 37840 ft 447 kts 313°
2026-04-15 13:37 49.51894 56.06289 37843 ft 448 kts 313°
2026-04-15 13:37 49.55863 55.98942 37848 ft 448 kts 313°
2026-04-15 13:38 49.59836 55.91568 37851 ft 448 kts 312°
2026-04-15 13:38 49.63821 55.84157 37858 ft 449 kts 313°
2026-04-15 13:39 49.67796 55.76742 37860 ft 449 kts 312°
2026-04-15 13:39 49.71792 55.69264 37873 ft 449 kts 312°
2026-04-15 13:40 49.75768 55.61802 37862 ft 448 kts 312°
2026-04-15 13:40 49.79697 55.54408 37869 ft 446 kts 312°
2026-04-15 13:41 49.83652 55.46942 37864 ft 446 kts 312°
2026-04-15 13:41 49.87557 55.39550 37872 ft 445 kts 312°
2026-04-15 13:42 49.91490 55.32087 37871 ft 444 kts 312°
2026-04-15 13:42 49.95390 55.24663 37877 ft 442 kts 312°
2026-04-15 13:43 49.99266 55.17265 37876 ft 441 kts 312°
2026-04-15 13:43 50.03112 55.09904 37874 ft 440 kts 312°
2026-04-15 13:44 50.06975 55.02488 37871 ft 439 kts 312°
2026-04-15 13:44 50.10799 54.95127 37874 ft 438 kts 312°
2026-04-15 13:45 50.14636 54.87721 37877 ft 438 kts 312°
2026-04-15 13:47 50.29793 54.57811 37904 ft 442 kts 306°
2026-04-15 13:47 50.32357 54.50819 37907 ft 445 kts 299°
2026-04-15 13:48 50.34939 54.42053 37908 ft 445 kts 298°
2026-04-15 13:48 50.37550 54.33234 37909 ft 445 kts 297°
2026-04-15 13:49 50.40133 54.24430 37909 ft 445 kts 297°
2026-04-15 13:49 50.42695 54.15632 37910 ft 444 kts 297°
2026-04-15 13:50 50.45272 54.06747 37907 ft 444 kts 297°
2026-04-15 13:50 50.47808 53.97971 37907 ft 444 kts 297°
2026-04-15 13:51 50.50347 53.89150 37908 ft 443 kts 297°
2026-04-15 13:51 50.52886 53.80304 37912 ft 443 kts 297°
2026-04-15 13:52 50.55417 53.71449 37911 ft 443 kts 296°
2026-04-15 13:52 50.57931 53.62621 37908 ft 443 kts 296°
2026-04-15 13:53 50.60443 53.53764 37922 ft 443 kts 296°
2026-04-15 13:53 50.62950 53.44894 37915 ft 443 kts 296°
2026-04-15 13:54 50.65453 53.36003 37914 ft 443 kts 296°
2026-04-15 13:54 50.67947 53.27111 37923 ft 443 kts 296°
2026-04-15 13:55 50.70425 53.18245 37923 ft 443 kts 296°
2026-04-15 13:55 50.72905 53.09336 37924 ft 443 kts 296°
2026-04-15 13:56 50.75381 53.00408 37933 ft 443 kts 295°
2026-04-15 13:56 50.77850 52.91469 37927 ft 443 kts 295°
2026-04-15 13:57 50.80311 52.82528 37926 ft 443 kts 295°
2026-04-15 13:57 50.82764 52.73582 37930 ft 443 kts 295°
2026-04-15 13:58 50.85204 52.64645 37934 ft 443 kts 295°
2026-04-15 13:58 50.87644 52.55703 37934 ft 442 kts 295°
2026-04-15 13:59 50.90095 52.46762 37932 ft 442 kts 295°
2026-04-15 13:59 50.92531 52.37850 37928 ft 441 kts 295°
2026-04-15 14:00 50.94959 52.28927 37933 ft 441 kts 295°
2026-04-15 14:00 50.97393 52.19945 37937 ft 441 kts 295°
2026-04-15 14:01 51.01007 52.06544 37929 ft 440 kts 295°
2026-04-15 14:02 51.03409 51.97595 37935 ft 440 kts 295°
2026-04-15 14:02 51.05790 51.88687 37947 ft 440 kts 295°
2026-04-15 14:03 51.08182 51.79705 37954 ft 440 kts 295°
2026-04-15 14:03 51.10560 51.70739 37959 ft 439 kts 295°
2026-04-15 14:04 51.12919 51.61812 37963 ft 439 kts 294°
2026-04-15 14:04 51.15389 51.52898 37964 ft 438 kts 300°
2026-04-15 14:05 51.18344 51.44451 37960 ft 438 kts 301°
2026-04-15 14:05 51.21312 51.35918 37959 ft 438 kts 300°
2026-04-15 14:06 51.24254 51.27423 37955 ft 439 kts 300°
2026-04-15 14:06 51.27207 51.18873 37955 ft 439 kts 300°
2026-04-15 14:07 51.30155 51.10309 37951 ft 439 kts 300°